View from above orbital plane
|
View from above satellite
|
Ground track
|
The orbit data is extracted from the following two-line orbital elements,
1 24827U 97028A 21102.46670523 .00000170 00000-0 26192-2 0 9998
2 24827 63.3151 135.9179 1034907 45.6441 46.0974 11.07941883964952
Epoch (UTC): | 12 April 2021 11:12:03 |
Eccentricity: | 0.1034907 |
inclination: | 63.3151° |
perigee height: | 1241 km |
apogee height: | 3001 km |
right ascension of ascending node: | 135.9179° |
argument of perigee: | 45.6441° |
revolutions per day: | 11.07941883 |
mean anomaly at epoch: | 46.0974° |
orbit number at epoch: | 96495 |
The dashed part of the orbit path shows where the satellite is in the earth's shadow,
|
|